Location: Newark
(33.6439°N, 114.9881°W)
Time: 11:52:42
(UTC+00:00)

Envisat - Pass Details

Date: 22 March 2019
Orbit: 764 x 766 km, 98.2° (Epoch: 24 April)

Event Time Altitude Azimuth Distance (km) Brightness Sun altitude
Rises 03:32:50 0° 208° (SSW) 3,218 6.4 -21.5°
Reaches altitude 10° 03:36:00 10° 229° (SW) 2,297 5.9 -22.1°
Maximum altitude 03:39:05 16° 267° (W) 1,910 5.9 -22.7°
Drops below altitude 10° 03:42:10 10° 305° (NW) 2,306 6.5 -23.3°
Sets 03:45:23 0° 326° (NW) 3,236 7.0 -24.0°
